Lapse_Rate
6.7 6.7 6.0 5.7 6.4 6.7 6.7 6.6 6.7 7.1 7.3 7.5 7.5 7.8 7.7 7.8 7.9 8.0 8.3 9.2 9.5 8.2 6.9 9.6 9.4 9.1 9.1 8.3 8.4 8.2 6.5 6.5 6.5 6.5 6.5 7.1 6.6 7.6 7.8 7.5 7.8 8.1 7.9 8.5 9.0
6.8 6.6 6.3 6.4 6.3 6.6 6.1 6.2 6.4 6.4 6.7 7.0 7.2 7.5 7.3 7.5 8.8 8.5 9.5 9.3 9.1 8.6 9.3 8.9 8.4 8.7 8.1 7.8 7.8 6.9 6.5 6.5 6.5 6.5 6.5 6.9 7.0 7.2 7.1 7.1 7.2 7.7 7.6 8.7 8.8
6.7 6.9 6.8 6.6 6.6 6.6 6.3 6.2 6.6 6.5 6.6 6.6 7.2 6.7 7.0 7.6 7.9 8.3 9.6 9.2 8.1 8.4 9.6 9.4 9.0 8.4 7.4 7.7 7.4 6.9 6.5 6.5 6.7 7.0 7.2 6.9 6.9 7.6 6.9 6.5 7.2 7.3 7.8 8.4 8.5
6.6 6.9 6.9 6.6 6.9 7.2 7.1 6.7 6.4 6.2 5.9 5.9 7.0 6.8 6.6 8.8 6.5 9.2 8.4 8.6 7.7 8.4 9.0 8.9 8.4 7.5 6.7 6.5 7.4 6.5 6.9 6.9 7.0 7.3 7.1 6.7 7.3 6.9 7.1 7.1 7.9 8.1 8.3 8.3 8.4
6.3 6.2 6.3 6.5 6.5 6.5 6.8 6.7 6.5 6.7 7.0 6.3 6.4 6.4 7.9 7.5 7.7 7.8 7.6 7.7 8.0 7.8 8.1 8.4 7.8 7.5 6.5 6.8 7.0 6.5 6.6 7.1 7.3 7.3 7.3 7.4 6.8 6.7 7.0 7.8 8.2 8.3 8.3 8.3 8.4
6.2 5.9 5.7 5.9 6.5 6.8 7.0 6.9 6.6 7.1 7.1 7.4 6.9 7.2 7.8 6.6 8.8 7.7 8.4 8.4 9.3 8.6 6.9 7.8 8.0 8.1 7.2 6.9 6.6 7.1 6.9 6.9 7.2 7.1 7.2 6.7 6.7 7.1 7.3 8.0 7.9 8.0 8.1 8.3 8.4
6.0 5.6 5.3 5.5 5.9 6.2 6.4 6.5 6.1 6.4 7.5 7.4 6.7 8.2 8.3 7.4 9.7 7.7 8.4 9.1 8.5 8.9 7.3 7.9 8.6 7.9 7.6 6.5 7.7 7.1 6.5 6.5 6.7 6.9 6.6 7.2 6.5 6.5 7.6 7.9 7.6 7.8 8.0 8.2 8.4
5.5 5.3 5.1 5.0 5.0 4.8 4.9 5.7 5.5 6.5 6.5 7.3 7.1 8.3 7.5 9.7 9.7 9.6 9.6 7.3 7.6 7.9 8.1 5.6 7.8 8.0 7.5 7.7 7.0 6.5 6.5 6.5 6.5 6.7 6.9 6.8 6.5 6.5 7.7 7.5 7.4 7.7 7.9 8.0 8.3
5.0 4.7 4.5 4.5 4.2 3.8 3.6 4.4 5.1 5.3 6.5 6.7 7.6 7.8 7.1 9.1 8.8 9.0 8.7 8.6 7.7 6.9 6.8 7.8 8.5 7.6 7.4 6.5 6.5 6.5 6.5 6.5 6.5 6.7 6.5 6.5 6.5 6.7 7.6 7.4 7.2 7.5 7.8 8.0 8.1
4.7 4.2 3.9 3.8 3.7 3.6 3.1 3.8 4.9 5.6 7.9 8.4 8.4 7.4 7.8 7.5 8.8 8.1 7.4 8.1 8.0 7.6 7.2 7.0 7.5 6.5 6.5 6.5 6.5 6.5 6.5 6.5 6.5 6.5 6.5 6.5 6.5 6.5 7.3 7.3 7.2 7.5 7.7 7.9 8.0
4.3 3.8 3.5 3.3 3.1 3.9 4.7 6.0 7.7 7.9 8.4 7.5 7.6 7.5 7.4 7.2 6.6 7.5 7.0 7.2 7.9 7.5 6.5 7.0 6.5 6.5 6.5 6.5 6.5 6.5 6.5 6.5 6.5 6.5 6.5 6.5 6.5 6.5 6.9 7.1 7.0 7.3 7.5 7.7 7.9
3.8 3.5 3.4 3.3 3.1 4.0 6.5 6.6 6.4 5.9 6.9 8.3 7.6 7.2 7.9 8.5 7.3 8.1 9.1 7.3 7.0 6.5 6.6 6.5 6.5 6.5 6.5 6.5 6.5 6.5 6.5 6.5 6.5 6.5 6.5 6.5 6.5 6.5 6.7 6.8 7.1 7.2 7.4 7.6 7.9
3.1 2.9 2.9 3.0 3.6 5.3 5.6 5.0 4.6 5.2 6.9 7.3 7.5 7.8 7.8 8.1 7.1 6.5 8.3 7.6 6.6 6.5 6.5 6.5 6.5 6.5 6.5 6.5 6.5 6.5 6.5 6.5 6.5 6.5 6.5 6.5 6.5 6.5 6.5 7.0 7.2 7.4 7.6 7.8 7.8
2.9 2.6 2.4 2.2 4.6 6.5 7.0 4.9 5.0 5.3 6.5 6.5 6.8 7.5 7.8 7.7 6.8 8.3 7.4 7.1 6.5 6.5 6.5 6.5 6.6 6.5 6.5 6.5 6.5 6.5 6.5 6.5 6.5 6.5 6.5 6.5 6.5 6.5 6.5 6.5 6.6 7.1 7.4 7.6 7.9
2.7 2.6 2.3 2.2 6.5 8.5 5.8 5.4 5.6 5.7 6.5 6.5 6.7 8.0 8.1 7.0 7.2 7.0 5.8 7.6 6.5 6.5 6.5 6.5 6.5 6.5 6.5 6.5 6.5 6.5 6.5 6.5 6.5 6.5 6.5 6.5 6.5 6.5 6.5 6.5 6.5 6.8 7.3 7.6 7.8
2.5 2.5 2.6 6.0 6.9 5.8 5.2 5.4 6.1 6.5 6.5 6.5 6.8 6.6 6.5 6.9 6.8 7.5 7.4 7.7 7.1 6.5 6.5 6.5 7.1 6.5 6.5 6.5 6.5 6.5 6.5 6.5 6.5 6.5 6.5 6.5 6.5 6.5 6.5 6.5 6.5 6.8 7.3 7.5 7.8
2.3 2.3 3.4 5.6 7.8 5.3 5.6 7.4 6.5 6.5 6.5 6.5 6.5 6.5 6.5 6.5 6.5 6.5 6.5 6.5 6.5 6.5 6.5 6.5 6.5 6.5 6.8 6.5 6.5 6.5 6.5 6.5 6.5 6.5 6.5 6.5 6.5 6.5 6.5 6.5 6.5 6.6 7.2 7.6 7.9
1.9 1.8 3.5 5.4 5.2 5.0 6.4 6.6 6.5 6.5 6.5 6.5 6.5 6.5 6.5 6.5 6.5 6.5 6.5 6.5 6.5 6.5 6.5 6.5 6.5 6.5 6.5 6.5 6.5 6.5 6.5 6.5 6.5 6.5 6.5 6.5 6.5 6.5 6.5 6.9 7.1 7.2 7.5 7.7 7.8
1.0 5.6 6.5 5.9 4.4 5.1 7.7 6.5 6.5 6.5 6.5 6.5 6.5 6.5 6.5 6.5 6.5 6.5 6.5 6.5 6.5 6.5 6.5 6.5 6.5 6.5 6.5 6.5 6.5 6.5 6.5 6.5 6.5 6.5 6.5 6.5 6.5 6.5 6.5 6.5 6.8 7.0 7.3 7.4 7.7
5.9 7.2 7.7 4.1 3.7 5.6 6.7 6.5 6.5 6.6 6.6 6.5 6.5 6.5 6.5 6.5 6.5 6.5 6.5 6.5 6.5 6.5 6.7 6.5 6.5 6.5 6.5 6.6 6.6 6.5 6.5 6.5 6.5 6.5 6.5 6.5 6.5 6.5 6.5 6.5 6.5 6.6 7.0 7.4 7.7
5.6 7.7 5.2 3.5 3.9 7.4 6.5 6.5 6.5 7.1 7.1 6.5 6.5 6.5 6.5 6.5 6.5 6.5 6.5 6.5 6.5 6.5 6.7 6.5 6.5 6.5 6.5 6.5 6.5 6.5 6.5 6.5 6.5 6.5 6.5 6.5 6.5 6.5 6.5 6.5 6.5 6.7 7.1 7.4 7.6
5.6 6.5 4.8 4.3 6.8 6.8 6.5 6.5 5.9 6.7 7.2 6.6 6.6 6.5 6.5 6.5 6.5 6.5 6.5 6.5 7.1 6.8 6.5 6.5 6.5 6.5 6.5 6.5 6.5 6.5 6.5 6.5 6.5 6.5 6.5 6.5 6.5 6.5 6.5 6.6 6.8 6.9 7.2 7.6 7.8
7.7 7.6 4.7 4.1 6.5 6.5 6.6 6.5 6.8 6.5 6.5 6.5 6.5 6.5 6.5 6.5 6.5 6.5 6.5 6.9 7.1 6.6 6.5 6.5 6.5 6.5 6.5 6.5 6.5 6.5 6.5 6.5 6.5 6.5 6.5 6.5 6.5 6.5 6.7 6.6 6.9 7.0 7.3 7.5 7.7
7.7 6.5 7.5 7.9 7.7 6.6 6.5 6.5 6.5 7.1 6.7 6.9 6.5 6.7 6.5 6.5 6.5 6.5 6.5 6.6 7.1 6.9 6.4 6.8 6.5 6.5 6.5 6.5 6.5 6.5 6.5 6.5 6.5 6.5 6.5 6.5 6.5 6.5 6.5 6.5 6.7 7.1 7.4 7.6 7.7
7.0 6.8 6.3 6.5 6.7 6.6 6.6 6.5 6.5 6.5 6.8 7.0 6.5 6.5 6.5 6.5 6.5 6.5 6.5 6.5 6.7 6.6 6.7 6.5 6.5 6.5 6.5 6.5 6.5 6.5 6.5 6.5 6.5 6.5 6.5 6.5 6.5 6.5 6.5 6.5 6.9 7.3 7.4 7.5 7.6
7.4 7.1 7.4 7.0 7.1 6.6 6.5 6.5 6.5 6.5 6.5 6.5 6.5 6.5 6.5 6.5 6.5 6.5 6.5 6.5 6.5 6.5 6.5 6.5 6.5 6.5 6.5 6.5 6.5 6.5 6.5 6.5 6.5 6.5 6.5 6.5 6.5 6.5 7.0 7.2 7.1 7.2 7.3 7.3 7.5
4.6 5.3 7.2 5.3 6.6 6.5 6.5 6.5 6.5 6.6 6.9 7.0 6.6 6.5 6.5 6.5 7.1 7.2 7.3 7.1 6.8 6.5 6.5 6.5 6.5 6.5 6.5 6.5 6.5 6.5 6.5 6.5 6.5 6.5 6.5 6.5 6.5 6.6 6.5 6.7 7.0 7.2 7.4 7.4 7.6
Wind_Speed
19 21 24 26 20 11 12 11 11 13 14 16 17 19 23 21 17 16 23 11 18 3 8 10 11 10 11 11 11 5 8 16 22 18 13 11 13 6 5 6 4 3 6 5 20
18 22 25 21 21 11 9 10 13 14 15 14 14 17 20 18 17 19 21 18 19 5 9 14 15 13 12 15 9 12 12 18 16 14 13 15 14 12 9 10 7 7 7 18 18
17 19 20 20 15 11 11 11 12 14 15 12 10 8 14 16 13 13 21 19 12 14 11 11 12 14 17 13 16 13 15 16 3 2 7 14 13 11 10 11 8 12 14 18 16
16 17 16 17 17 10 10 10 15 17 18 20 6 3 16 18 10 10 19 18 14 10 10 11 11 15 16 18 16 12 18 6 5 1 7 15 10 8 11 6 7 2 16 18 18
14 15 15 13 13 14 15 12 11 16 17 16 14 10 4 6 1 5 13 16 13 7 10 13 14 14 17 19 19 14 16 5 3 5 8 9 11 9 8 4 5 11 14 17 16
16 15 14 13 11 9 11 11 8 11 16 15 12 3 4 5 2 9 11 14 12 11 3 10 11 17 9 16 17 18 10 7 6 7 6 10 7 10 6 7 10 11 13 14 14
17 17 14 12 12 10 5 4 5 6 12 14 15 1 1 5 4 8 7 9 10 9 6 6 9 13 7 15 18 12 11 8 8 8 5 9 8 8 9 9 11 11 11 12 12
17 17 17 16 16 15 9 7 5 7 9 14 15 2 4 1 8 6 7 6 4 3 3 4 16 11 9 7 10 19 14 11 7 8 4 6 12 10 8 10 11 12 11 11 12
16 17 18 18 17 16 15 11 10 7 3 3 5 5 3 3 3 8 6 6 5 4 0 0 14 13 6 15 14 17 15 18 8 5 5 11 8 12 8 9 11 11 11 11 11
16 18 19 20 21 17 11 4 13 8 8 6 1 1 1 2 1 3 3 2 4 7 4 3 8 9 10 15 14 19 19 20 12 9 9 13 5 8 7 9 10 11 12 12 12
14 16 18 20 20 16 8 3 3 4 2 7 6 4 5 2 3 2 1 3 6 5 8 16 11 12 17 20 18 16 17 18 13 4 9 14 10 8 9 8 11 11 12 12 11
13 16 17 18 16 12 6 3 4 3 7 5 5 3 2 11 4 1 10 8 7 10 15 8 12 5 5 15 13 16 14 14 6 4 4 8 11 8 10 10 11 11 12 11 10
14 15 17 18 9 3 4 4 2 1 2 3 4 4 3 9 12 8 12 4 8 10 18 14 8 3 1 8 11 16 17 14 9 8 3 6 9 11 10 9 8 9 8 9 11
15 15 16 21 4 2 1 4 1 2 1 5 3 2 2 6 4 1 2 5 3 7 15 7 4 6 2 11 5 10 2 12 15 12 6 4 4 17 15 13 13 13 12 11 10
15 15 15 9 6 3 4 5 0 3 3 9 2 5 2 2 5 8 3 3 2 1 2 3 7 8 3 3 9 5 8 11 13 5 5 5 3 5 8 14 16 15 13 10 7
14 14 15 4 2 2 4 2 3 2 4 5 4 5 3 9 1 9 5 4 3 13 14 7 4 5 3 6 6 11 15 11 6 3 1 4 3 6 9 7 10 14 12 10 8
15 13 6 3 3 4 2 3 1 4 1 5 4 4 4 2 4 3 2 4 2 4 2 9 8 5 6 2 3 7 13 4 2 1 1 1 2 8 3 3 2 7 11 10 9
15 8 3 1 3 3 3 3 6 2 3 2 3 2 4 6 4 3 2 3 7 1 7 4 4 4 8 4 3 7 2 3 5 5 4 2 5 2 5 2 1 4 10 10 10
9 3 2 1 2 3 4 5 2 2 3 6 3 2 2 3 2 2 5 4 5 6 2 5 4 2 4 4 5 4 2 1 4 3 2 4 4 6 1 3 3 6 9 9 9
2 2 2 4 2 3 2 3 2 1 3 3 4 3 2 4 1 1 3 3 3 5 5 3 6 2 0 3 2 3 3 2 1 3 3 4 3 1 2 3 5 7 8 9 9
2 3 2 2 3 0 3 4 3 3 4 4 4 2 4 3 4 2 4 3 5 5 4 2 2 4 2 1 3 3 2 2 2 2 2 1 4 3 4 3 4 7 10 10 11
2 1 2 1 0 2 3 2 1 3 1 2 4 5 3 3 4 3 3 5 7 5 4 4 3 4 2 1 2 3 2 3 2 3 2 2 2 2 3 1 1 5 7 9 10
3 2 2 2 2 3 3 3 3 3 3 4 4 5 5 4 1 3 3 3 5 5 5 4 1 5 3 3 2 4 3 2 3 2 4 2 2 3 4 2 1 5 7 10 12
3 1 2 3 2 3 2 3 2 1 2 3 3 2 2 4 5 3 4 5 6 6 6 5 2 5 2 4 2 4 7 7 5 3 4 8 8 4 1 9 11 6 7 9 10
3 2 2 2 4 4 0 1 2 2 2 3 2 5 4 2 2 3 2 2 2 2 2 2 3 5 6 6 4 3 2 7 9 7 4 6 11 13 15 13 12 9 8 9 10
3 2 1 2 1 1 1 2 1 2 3 3 3 5 6 4 5 3 3 3 3 2 2 2 1 1 2 0 1 3 7 8 9 10 11 11 13 5 8 9 9 9 9 8 8
1 1 3 1 0 2 2 2 2 0 2 2 1 0 4 3 4 4 5 4 4 3 2 2 1 1 0 2 6 7 7 11 5 8 6 6 5 10 9 10 11 11 10 10 9
Wind_Direction
9 3 2 1 354 345 340 322 309 301 297 291 285 257 247 237 235 227 218 215 221 99 195 195 202 214 226 216 225 243 221 217 218 229 201 155 175 196 58 120 174 116 36 89 137
7 1 5 5 10 5 353 342 336 336 322 297 284 264 239 223 222 219 211 199 210 151 193 190 186 194 206 207 197 210 221 217 207 219 228 176 187 163 172 157 159 138 107 124 147
6 360 1 11 8 14 17 15 2 16 27 356 318 279 212 189 205 223 186 196 207 211 226 209 202 194 218 205 205 211 226 224 170 23 292 181 198 170 185 193 180 184 152 152 163
3 354 355 359 357 3 22 39 57 49 37 25 25 109 154 176 182 178 159 192 188 193 209 202 205 194 215 206 204 217 225 278 126 186 225 180 162 191 194 68 78 117 157 162 170
353 358 354 348 1 358 354 10 46 49 39 33 35 71 119 202 349 142 160 169 174 168 201 192 197 193 209 205 195 230 192 210 171 186 203 176 178 166 148 106 122 122 153 170 173
341 353 355 339 331 333 346 16 44 62 32 34 26 283 146 180 3 125 174 166 171 167 165 239 211 204 246 208 194 203 165 161 170 166 156 176 158 166 138 138 129 147 163 173 177
335 342 342 332 324 321 301 17 31 89 37 34 26 339 183 52 144 129 184 178 158 161 158 255 242 213 278 215 209 165 153 155 173 178 155 190 176 203 133 150 147 164 168 174 181
332 331 330 329 327 313 291 227 155 86 66 31 21 359 85 10 119 158 151 134 160 121 114 335 303 279 258 223 188 182 170 172 161 178 160 206 185 143 164 167 163 164 169 178 186
328 327 328 327 328 315 292 235 207 214 283 339 46 341 105 338 216 114 326 174 133 101 335 277 283 227 217 207 180 191 182 191 152 203 164 211 185 145 172 190 177 177 178 186 188
325 329 330 330 330 325 310 205 208 237 234 250 188 160 16 335 349 57 37 126 151 143 100 247 230 209 216 213 186 186 193 188 169 176 202 192 134 154 181 195 196 190 191 193 197
324 325 330 330 333 326 315 204 210 162 249 53 20 127 168 101 5 352 228 146 221 185 177 201 192 203 195 210 199 185 202 179 128 146 198 195 196 181 186 204 208 204 201 204 205
323 324 326 329 331 336 331 23 35 4 103 94 86 50 81 171 27 196 170 198 204 184 170 172 192 170 257 223 228 188 164 161 103 159 238 180 211 176 189 211 211 211 216 212 206
321 325 326 328 322 297 46 35 26 263 187 77 117 160 230 188 147 232 192 198 189 178 178 171 91 125 98 222 201 187 191 150 154 149 74 174 222 199 207 209 208 228 240 232 224
323 327 330 324 283 351 19 340 290 221 191 126 313 23 221 302 74 101 100 126 270 178 164 85 129 138 196 209 246 160 348 152 141 158 180 215 243 197 196 211 216 212 209 218 212
327 325 327 338 324 312 342 319 269 247 14 346 50 130 151 202 114 32 241 246 294 63 226 101 118 110 179 320 308 119 160 149 159 137 152 175 252 136 197 214 216 212 203 200 194
335 326 318 244 255 26 326 298 242 247 34 357 3 30 74 86 97 176 215 194 267 71 80 102 105 49 54 335 255 145 123 111 122 140 188 90 258 224 182 232 219 195 194 182 174
330 321 291 300 356 327 305 227 240 45 279 9 356 67 149 65 108 169 149 84 58 93 85 102 58 93 31 139 193 229 155 120 115 146 217 77 213 259 113 81 25 200 184 175 171
318 304 189 333 316 303 239 224 59 314 46 8 328 341 63 359 77 53 117 92 56 291 155 119 121 24 14 329 298 172 270 168 150 180 149 46 222 234 46 60 345 233 183 167 174
311 183 212 105 293 261 247 59 96 10 356 338 279 129 61 56 353 57 52 46 35 8 331 121 85 79 45 344 313 158 178 32 101 64 171 173 238 199 225 170 156 167 173 180 181
297 238 111 336 221 234 33 84 70 318 316 277 355 332 81 12 298 6 39 29 22 10 306 73 105 76 33 269 72 317 115 162 136 136 200 166 252 294 51 186 175 183 198 196 189
253 244 92 334 233 133 57 56 47 20 325 321 16 24 47 11 4 54 36 68 12 349 347 23 93 130 246 322 33 156 161 64 57 2 346 347 103 51 69 48 207 211 209 205 200
300 344 83 222 213 62 64 21 304 8 352 318 316 1 25 20 40 54 67 40 0 344 19 27 81 133 79 99 313 320 9 323 285 134 55 9 285 122 100 49 313 251 221 220 210
337 348 145 279 81 82 115 99 27 5 22 6 21 20 5 9 359 44 59 38 11 13 9 12 135 127 158 177 191 235 165 112 104 37 211 283 106 135 129 106 65 282 242 223 215
293 350 62 68 18 62 107 72 83 59 25 345 355 280 332 40 40 70 66 34 16 21 341 300 31 357 36 60 67 179 193 204 211 196 194 230 279 196 333 334 333 311 297 277 240
355 62 4 24 58 55 308 108 76 46 35 2 97 36 358 37 75 75 74 116 85 353 355 357 59 36 44 33 3 345 207 197 208 244 259 349 326 320 326 339 340 326 313 303 272
340 312 200 86 335 288 8 43 50 117 352 43 70 27 19 63 28 46 348 13 30 52 31 351 108 84 136 358 268 257 243 240 237 264 276 284 295 55 329 325 326 318 309 296 275
47 157 294 85 320 263 45 75 74 224 88 37 11 305 78 68 50 68 68 76 58 359 39 15 122 348 97 292 300 262 238 207 205 210 229 241 32 344 337 336 329 322 316 304 286